STARLINK-3850, 52342

Orbit data source: Space-Track

STARLINK-3850, 52342 is a payload satellite owned by SpaceX/Seattle (US) in LEO that was launched on Fri, 29 Apr 2022 UTC via an FALCON 9 launch vehicle from the Air Force Eastern Test Range (AFETR). Payload-class satellites include a variety of spacecraft equipped with specific instruments for various scientific and technological missions. These include communications satellites like Starlink; space stations such as the ISS; scientific satellites like the Hubble; Earth observation satellites from companies like Planet Labs, Umbra, and HawkEye 360; GPS; miniature CubeSats for education and research; and military/defense satellites.

Loading next visibility...
Identifier
52342, 2022-045M
Orbit
LEO
Country
Flag of USUS
Related business
Manufacturer
SpaceX/Seattle
Mission
Operational Commercial Communications
Bus & Motor
STARLINK, Unknown motor
Mass
297 kg wet, ~275 kg dry
Launch date (UTC)
2022-04-29 (4 years ago)
Launch vehicle
FALCON 9
Launch site
Air Force Eastern Test Range (AFETR)
Object type
Payload
Rocket body
Debris
Shape & HBR
Box + 1 Pan, 10.1 m
Radar Cross Section
11.087 m², Large (>1 m²)

Expand to show TLE details & history
Last TLE update: 20 hours ago

TLE from 20 hours ago
0 STARLINK-3850
1 52342U 22045M   25348.93845800  .00001359  00000-0  10347-3 0  9994
2 52342  53.2155 219.6979 0001482  82.8692 277.2468 15.08831259202981
Epoch: 2025-12-14T22:31Z
TLE epoch observation values (Epoch: 2025-12-14T22:31:22.771Z)
Latitude
-0.00006°
Longitude
158.00878°
Altitude
540.538 km
Speed
7.593 km/s
True Right ascension
14h 38m 47s
True Declination
0° 00' 00"
Sunlit
Object was in daylight at epoch
Visualization orbit readout
Latitude
Unknown
Longitude
Unknown
Altitude
Unknown
Speed
Unknown
Apparent Right ascension
Unknown
Apparent Declination
Unknown
Sunlit
N/A
Visualization observer readout
Local Sidereal Time
17:21:59
Azimuth
Unknown
Elevation
Unknown
Doppler factor
Unknown
Orbital elements
Apogee altitude
541.041 km
Perigee altitude
538.99 km
Semi-major axis
6,918.152 km
Eccentricity
0.00015
Inclination
53.2155°
RAAN
219.6979°
Arg. of periapsis
82.8692°
True anomaly
277.22995°
Mean anomaly
277.2468°
Eccentric anomaly
277.23838°
Mean motion
3.77188 °/min
Orbital period
95.44 mins
BSTAR
0.00010347
Loading maneuver chart data...
Computing Atmospheric mass density...
Loading historical data...
Loading historical data...
Loading historical data...
Loading historical data...
Loading historical data...
Loading historical data...
Loading historical data...

Documentation

Showing up to 5 results
|